Time,TemperatureF,DewpointF,PressureIn,WindDirection,WindDirectionDegrees,WindSpeedMPH,WindSpeedGustMPH,Humidity,HourlyPrecipIn,Conditions,Clouds,dailyrainin,SoftwareType,DateUTC
2013-08-15 00:21:00,82.0,45.0,29.26,NNE,23,5.0,-999.0,28,0.00,,,0.00,,2013-08-15 07:21:00,
2013-08-15 00:32:00,82.0,45.0,29.26,NNE,23,5.0,-999.0,28,0.00,,,0.00,,2013-08-15 07:32:00,
2013-08-15 00:41:00,82.0,45.0,29.26,NNE,23,5.0,-999.0,28,0.00,,,0.00,,2013-08-15 07:41:00,
2013-08-15 01:11:00,79.0,46.0,29.26,WSW,251,3.0,-999.0,31,0.00,,,0.00,,2013-08-15 08:11:00,
2013-08-15 01:21:00,79.0,46.0,29.26,WSW,251,3.0,-999.0,31,0.00,,,0.00,,2013-08-15 08:21:00,
2013-08-15 01:32:00,79.0,46.0,29.26,WSW,251,3.0,-999.0,31,0.00,,,0.00,,2013-08-15 08:32:00,
2013-08-15 01:41:00,79.0,46.0,29.26,WSW,251,3.0,-999.0,31,0.00,,,0.00,,2013-08-15 08:41:00,
2013-08-15 02:11:00,78.0,45.0,29.25,WSW,247,3.0,-999.0,32,0.00,,,0.00,,2013-08-15 09:11:00,
2013-08-15 02:21:00,78.0,45.0,29.25,WSW,247,3.0,-999.0,32,0.00,,,0.00,,2013-08-15 09:21:00,
2013-08-15 02:33:00,78.0,45.0,29.25,WSW,247,3.0,-999.0,32,0.00,,,0.00,,2013-08-15 09:33:00,
2013-08-15 02:42:00,78.0,45.0,29.25,WSW,247,3.0,-999.0,32,0.00,,,0.00,,2013-08-15 09:42:00,
2013-08-15 03:12:00,77.0,45.0,29.26,East,96,3.0,-999.0,32,0.00,,,0.00,,2013-08-15 10:12:00,
2013-08-15 03:22:00,77.0,45.0,29.26,East,96,3.0,-999.0,32,0.00,,,0.00,,2013-08-15 10:22:00,
2013-08-15 03:32:00,77.0,45.0,29.26,East,96,3.0,-999.0,32,0.00,,,0.00,,2013-08-15 10:32:00,
2013-08-15 03:42:00,77.0,45.0,29.26,East,96,3.0,-999.0,32,0.00,,,0.00,,2013-08-15 10:42:00,
2013-08-15 04:11:00,71.0,46.0,29.27,SSE,167,2.0,-999.0,41,0.00,,,0.00,,2013-08-15 11:11:00,
2013-08-15 04:22:00,71.0,46.0,29.27,SSE,167,2.0,-999.0,41,0.00,,,0.00,,2013-08-15 11:22:00,
2013-08-15 04:32:00,71.0,46.0,29.27,SSE,167,2.0,-999.0,41,0.00,,,0.00,,2013-08-15 11:32:00,
2013-08-15 04:42:00,71.0,46.0,29.27,SSE,167,2.0,-999.0,41,0.00,,,0.00,,2013-08-15 11:42:00,
2013-08-15 05:11:00,74.0,46.0,29.27,NNE,25,6.0,-999.0,37,0.00,,,0.00,,2013-08-15 12:11:00,
2013-08-15 05:21:00,74.0,46.0,29.27,NNE,25,6.0,-999.0,37,0.00,,,0.00,,2013-08-15 12:21:00,
2013-08-15 05:31:00,74.0,46.0,29.27,NNE,25,6.0,-999.0,37,0.00,,,0.00,,2013-08-15 12:31:00,
2013-08-15 05:41:00,74.0,46.0,29.27,NNE,25,6.0,-999.0,37,0.00,,,0.00,,2013-08-15 12:41:00,
2013-08-15 06:11:00,73.0,46.0,29.28,NNW,336,3.0,-999.0,38,0.00,,,0.00,,2013-08-15 13:11:00,
2013-08-15 06:21:00,73.0,46.0,29.28,NNW,336,3.0,-999.0,38,0.00,,,0.00,,2013-08-15 13:21:00,
2013-08-15 06:32:00,73.0,46.0,29.28,NNW,336,3.0,-999.0,38,0.00,,,0.00,,2013-08-15 13:32:00,
2013-08-15 06:42:00,73.0,46.0,29.28,NNW,336,3.0,-999.0,38,0.00,,,0.00,,2013-08-15 13:42:00,
2013-08-15 07:12:00,72.0,44.0,29.30,East,92,6.0,-999.0,37,0.00,,,0.00,,2013-08-15 14:12:00,
2013-08-15 07:22:00,72.0,44.0,29.30,East,92,6.0,-999.0,37,0.00,,,0.00,,2013-08-15 14:22:00,
2013-08-15 07:32:00,72.0,44.0,29.30,East,92,6.0,-999.0,37,0.00,,,0.00,,2013-08-15 14:32:00,
2013-08-15 07:42:00,72.0,44.0,29.30,East,92,6.0,-999.0,37,0.00,,,0.00,,2013-08-15 14:42:00,
2013-08-15 08:13:00,74.0,42.0,29.31,NNE,14,2.0,-999.0,32,0.00,,,0.00,,2013-08-15 15:13:00,
2013-08-15 08:23:00,74.0,42.0,29.31,NNE,14,2.0,-999.0,32,0.00,,,0.00,,2013-08-15 15:23:00,
2013-08-15 08:34:00,74.0,42.0,29.31,NNE,14,2.0,-999.0,32,0.00,,,0.00,,2013-08-15 15:34:00,
2013-08-15 08:43:00,74.0,42.0,29.31,NNE,14,2.0,-999.0,32,0.00,,,0.00,,2013-08-15 15:43:00,
2013-08-15 09:44:00,82.0,51.0,29.31,North,350,2.0,-999.0,34,0.00,,,-99.99,,2013-08-15 16:44:00,
2013-08-15 10:45:00,89.0,50.0,29.32,West,265,4.0,-999.0,27,-99.99,,,0.00,,2013-08-15 17:45:00,
2013-08-15 11:25:00,89.0,50.0,29.32,West,265,4.0,-999.0,27,-99.99,,,0.00,,2013-08-15 18:25:00,
2013-08-15 11:34:00,-999.0,-99.9,29.32,West,265,4.0,-999.0,-999,-99.99,,,0.00,,2013-08-15 18:34:00,
2013-08-15 11:40:00,-999.0,-99.9,29.32,West,265,4.0,-999.0,27,-99.99,,,0.00,,2013-08-15 18:40:00,
2013-08-15 11:45:00,91.0,52.0,29.31,WNW,300,4.0,-999.0,26,0.00,,,-99.99,,2013-08-15 18:45:00,
2013-08-15 12:17:00,91.0,52.0,29.31,WNW,300,4.0,-999.0,26,0.00,,,-99.99,,2013-08-15 19:17:00,
2013-08-15 12:34:00,-999.0,-99.9,29.31,WNW,300,4.0,-999.0,-999,-99.99,,,-99.99,,2013-08-15 19:34:00,
2013-08-15 12:39:00,91.0,52.0,29.31,WNW,300,4.0,-999.0,26,0.00,,,-99.99,,2013-08-15 19:39:00,
2013-08-15 13:15:00,92.0,52.0,29.29,WNW,290,3.0,-999.0,25,0.00,,,0.00,,2013-08-15 20:15:00,
2013-08-15 13:28:00,92.0,52.0,29.29,WNW,290,3.0,-999.0,25,0.00,,,0.00,,2013-08-15 20:28:00,
2013-08-15 13:34:00,92.0,52.0,29.29,WNW,290,3.0,-999.0,25,0.00,,,0.00,,2013-08-15 20:34:00,
2013-08-15 13:43:00,92.0,52.0,29.29,WNW,290,3.0,-999.0,25,0.00,,,0.00,,2013-08-15 20:43:00,
2013-08-15 13:45:00,95.0,50.0,29.29,WNW,287,5.0,-999.0,22,0.01,,,0.00,,2013-08-15 20:45:00,
2013-08-15 14:17:00,95.0,50.0,29.29,WNW,287,5.0,-999.0,22,0.01,,,0.00,,2013-08-15 21:17:00,
2013-08-15 14:34:00,95.0,50.0,29.29,WNW,287,5.0,-999.0,22,0.01,,,0.00,,2013-08-15 21:34:00,
2013-08-15 16:35:00,-999.0,-99.9,29.25,SW,219,4.0,-999.0,14,0.00,,,0.00,,2013-08-15 23:35:00,
2013-08-15 18:43:00,-999.0,-99.9,29.22,West,267,5.0,-999.0,-999,-99.99,,,-99.99,,2013-08-16 01:43:00,
2013-08-15 19:12:00,99.0,44.0,29.22,West,265,3.0,-999.0,15,0.00,,,0.00,,2013-08-16 02:12:00,
2013-08-15 19:21:00,99.0,44.0,29.22,West,265,3.0,-999.0,15,0.00,,,0.00,,2013-08-16 02:21:00,
2013-08-15 19:32:00,99.0,44.0,29.22,West,265,3.0,-999.0,15,0.00,,,0.00,,2013-08-16 02:32:00,
2013-08-15 19:43:00,99.0,44.0,29.22,West,265,3.0,-999.0,15,0.00,,,0.00,,2013-08-16 02:43:00,
2013-08-15 20:43:00,94.0,40.0,29.23,South,179,5.0,-999.0,15,0.00,,,0.00,,2013-08-16 03:43:00,
2013-08-15 21:23:00,91.0,40.0,29.25,ENE,59,6.0,-999.0,17,0.00,,,0.00,,2013-08-16 04:23:00,
2013-08-15 21:33:00,91.0,40.0,29.25,ENE,59,6.0,-999.0,17,0.00,,,0.00,,2013-08-16 04:33:00,
2013-08-15 22:11:00,88.0,43.0,29.27,SSE,155,4.0,-999.0,21,-99.99,,,0.00,,2013-08-16 05:11:00,
2013-08-15 22:21:00,88.0,43.0,29.27,SSE,155,4.0,-999.0,21,-99.99,,,0.00,,2013-08-16 05:21:00,
2013-08-15 22:32:00,88.0,43.0,29.27,SSE,155,4.0,-999.0,21,-99.99,,,0.00,,2013-08-16 05:32:00,
2013-08-15 22:42:00,88.0,43.0,29.27,SSE,155,4.0,-999.0,21,-99.99,,,0.00,,2013-08-16 05:42:00,